User: anonymous   Login
Location: Chuathbaluk
(61.5726°N, 159.2454°W)
Time: 10:42:56
(UTC+00:00)
Language:

ZACube-1 - Orbit

View from above orbital plane
View from above orbital plane
View from above satellite
View from above satellite

Ground track
Ground track

The orbit data is extracted from the following two-line orbital elements,

1 39417U 13066B   21137.92181049  .00000261  00000-0  38970-4 0  9998
2 39417  97.5915 123.8332 0057008 261.0769  98.3989 14.81502913404553
Epoch (UTC): 17 May 2021 22:07:24
Eccentricity: 0.0057008
inclination: 97.5915°
perigee height: 584 km
apogee height: 664 km
right ascension of ascending node: 123.8332°
argument of perigee: 261.0769°
revolutions per day: 14.81502913
mean anomaly at epoch: 98.3989°
orbit number at epoch: 40455

The dashed part of the orbit path shows where the satellite is in the earth's shadow,  

DLR